Wind_Speed
46 48 50 53 55 57 59 61 62 62 62 63 65 66 67 67 69 69 70 70 69 67 64 62 59 57 55 53 53 53 53 53 54 56 58 62 65 66
50 51 53 56 58 59 61 62 63 63 62 63 65 66 67 67 68 68 66 63 60 57 54 51 49 48 47 46 45 44 44 44 45 46 47 50 55 59
53 54 56 58 59 59 60 61 61 62 62 62 65 66 66 65 64 61 58 54 51 48 46 45 44 44 44 42 41 40 39 38 38 38 39 40 44 50
56 57 57 58 58 58 58 59 61 62 63 62 62 62 61 58 56 53 50 47 44 43 42 42 41 41 41 40 39 37 36 35 34 34 34 35 37 41
57 57 57 57 57 57 58 59 60 61 61 61 58 56 53 50 48 46 43 42 41 40 39 39 38 38 38 38 36 34 32 31 31 30 31 32 33 35
57 56 56 56 56 57 57 58 59 59 58 55 52 48 45 43 42 40 39 38 37 37 37 37 37 36 35 35 34 32 30 29 28 28 28 28 29 31
55 55 55 55 55 55 56 56 56 54 52 48 43 39 38 38 37 36 35 34 33 34 33 33 34 33 33 32 31 30 29 27 26 26 26 26 26 28
54 54 54 53 53 53 53 52 50 48 43 38 35 35 35 34 33 32 32 31 29 30 30 30 31 30 30 29 29 28 27 26 25 25 25 24 25 25
52 52 51 51 49 49 48 47 43 39 35 33 33 33 31 31 30 30 29 29 29 29 28 28 28 28 27 26 25 25 25 24 24 24 23 23 23 24
49 48 47 46 45 44 41 38 34 32 31 32 31 30 30 30 30 29 29 28 28 28 27 27 26 24 23 22 21 21 22 22 23 23 23 23 23 22
45 44 42 41 39 36 32 29 27 28 29 29 29 29 30 31 30 29 28 27 25 25 26 25 23 22 21 19 18 18 19 20 22 22 22 22 22 21
40 38 35 33 31 27 24 22 23 24 25 26 28 29 29 29 29 28 27 25 24 23 23 22 20 18 17 16 15 16 17 19 20 21 21 21 20 19
34 31 28 24 21 19 18 18 19 20 22 23 24 25 26 27 27 26 25 23 22 21 19 18 18 16 14 14 14 14 15 17 18 18 18 18 17 16
26 23 19 16 13 12 13 15 17 18 19 20 22 23 25 26 26 25 24 22 21 19 18 18 17 15 14 13 13 13 14 14 15 15 15 15 14 14
17 14 11 8 7 9 11 13 14 15 17 19 20 22 23 24 25 24 23 22 22 21 20 19 18 17 16 15 14 14 14 14 14 13 13 12 11 10
10 7 5 4 5 7 9 10 12 14 16 18 19 21 22 23 24 24 23 23 23 23 22 21 21 20 20 19 18 16 16 15 13 12 10 8 7 7
4 1 0 2 4 6 8 10 13 14 16 18 19 20 21 22 23 23 23 23 24 24 24 23 23 23 23 23 22 20 19 17 15 12 10 6 3 3
4 4 4 4 5 7 9 11 13 14 16 17 19 19 20 21 22 22 23 23 24 24 24 25 25 25 25 25 24 23 21 20 18 15 12 8 5 4
7 7 7 8 8 9 10 12 13 15 16 17 18 19 20 21 21 22 22 23 23 24 24 25 25 25 25 26 26 25 24 23 22 19 15 11 10 9
9 10 11 11 11 11 12 13 14 16 17 18 19 19 20 20 21 21 21 22 22 22 23 23 23 24 25 27 27 27 27 26 25 23 21 16 14 13
12 13 13 13 13 13 13 14 14 15 17 18 19 19 20 21 21 21 20 20 20 20 20 20 21 22 24 25 26 28 29 28 28 27 25 22 20 17
15 15 14 13 13 13 13 13 14 15 16 17 18 19 20 20 21 21 21 20 19 19 18 18 18 20 21 23 25 27 29 29 29 28 28 25 23 21
16 15 14 13 13 13 12 12 13 14 15 16 17 18 19 19 20 20 21 21 20 19 18 17 17 18 19 20 22 24 25 27 27 27 26 27 26 24
Wind_Direction
296 295 294 293 293 293 293 293 293 293 293 294 293 293 293 292 292 291 291 290 290 289 287 286 285 283 281 280 278 278 277 276 274 270 265 260 256 253
295 294 293 293 293 293 293 294 295 295 295 295 294 294 293 293 293 292 292 292 291 289 288 287 286 285 283 282 281 280 278 278 277 273 268 262 256 252
294 294 293 294 294 295 296 296 296 296 296 296 295 295 295 295 295 294 293 292 291 289 288 287 286 285 284 283 282 281 280 279 278 275 270 264 259 253
295 295 295 296 297 297 297 297 298 298 298 297 297 297 297 296 295 295 294 293 292 291 290 289 287 286 284 283 282 281 281 280 278 276 271 266 262 257
296 297 298 298 299 299 299 299 299 299 299 299 299 299 298 297 297 297 297 296 295 293 292 290 289 287 285 283 282 281 280 280 279 277 274 269 265 260
298 298 299 300 300 300 300 300 300 300 301 302 302 301 300 300 301 301 300 299 298 296 295 294 292 289 285 282 281 280 280 279 279 278 277 273 268 264
298 299 300 301 301 300 300 301 302 303 304 304 305 304 304 304 304 303 303 303 302 300 300 297 295 292 287 283 280 278 277 277 278 278 279 277 273 268
299 300 300 300 301 301 302 303 304 305 306 307 307 308 308 308 308 308 308 308 306 304 304 302 300 297 291 285 280 275 274 275 276 278 278 278 277 273
299 300 300 301 302 302 303 305 306 308 310 311 312 313 313 314 314 314 313 312 312 311 311 308 304 301 296 289 282 275 271 272 274 277 279 280 279 276
299 300 301 302 303 304 305 307 309 311 313 315 317 318 318 319 319 319 318 317 316 315 314 313 310 307 302 294 285 277 272 271 274 277 280 281 279 277
300 301 302 302 303 304 306 307 310 313 316 319 320 321 322 322 322 321 322 321 320 318 318 318 316 313 308 300 290 281 276 275 277 279 281 281 279 276
299 299 300 301 302 304 306 310 314 317 320 323 325 326 328 329 331 329 327 326 326 326 326 326 325 322 317 308 298 289 284 282 283 283 283 281 278 273
298 299 299 299 301 305 310 315 320 324 327 331 335 338 341 344 344 344 341 339 337 339 340 341 339 336 330 322 311 301 295 291 289 288 287 283 277 271
297 297 297 299 303 310 318 325 331 335 339 342 346 350 354 356 356 357 358 358 359 358 358 357 356 354 348 339 330 320 313 307 301 297 293 286 279 267
292 292 294 301 313 324 331 338 344 348 353 356 359 2 4 5 7 9 11 13 15 16 15 14 14 12 7 0 353 344 335 327 318 313 305 293 279 263
284 286 294 316 339 345 350 358 4 6 8 9 10 11 12 14 17 19 22 24 25 25 25 24 23 22 19 15 11 6 0 352 344 335 327 312 286 251
255 237 82 28 22 19 22 22 21 22 21 20 19 19 19 21 23 26 28 30 31 32 32 33 33 31 28 24 21 18 14 10 6 3 359 352 326 218
139 120 95 78 67 58 46 39 36 34 31 29 28 27 26 26 28 30 32 34 35 36 36 36 35 34 30 28 26 25 24 22 20 19 21 31 56 114
115 108 101 96 86 71 60 54 49 44 40 36 34 32 32 31 32 34 35 36 37 37 38 37 35 34 33 32 32 32 33 32 32 33 39 55 73 96
110 109 107 100 89 79 71 64 57 51 44 39 37 36 35 34 34 34 34 35 35 36 36 36 36 37 38 37 37 38 38 38 41 45 51 64 76 89
112 111 106 99 93 85 75 67 59 53 46 41 38 37 35 34 33 33 32 31 31 32 33 34 35 37 38 39 39 41 42 43 47 50 55 65 74 83
110 108 104 99 94 85 75 67 59 51 46 41 37 35 33 32 32 31 30 29 28 27 28 30 31 34 36 37 39 41 44 46 49 53 58 63 71 78
109 105 101 97 91 83 74 65 57 49 44 39 34 30 27 26 27 27 27 28 27 26 26 28 30 32 34 36 38 41 44 48 51 55 60 64 69 75
Height
5769 5765 5760 5755 5750 5745 5739 5734 5730 5726 5721 5712 5703 5695 5689 5681 5673 5667 5661 5654 5646 5640 5633 5628 5624 5620 5616 5613 5610 5607 5604 5602 5600 5599 5599 5601 5605 5610
5756 5752 5747 5742 5736 5730 5725 5718 5712 5707 5704 5696 5686 5678 5671 5663 5655 5648 5642 5635 5629 5622 5616 5612 5608 5604 5601 5597 5594 5591 5589 5586 5584 5582 5581 5582 5584 5588
5743 5738 5733 5727 5722 5716 5709 5703 5696 5690 5685 5680 5670 5661 5652 5645 5637 5630 5624 5618 5613 5607 5602 5598 5594 5591 5587 5584 5581 5578 5575 5573 5570 5568 5567 5567 5568 5571
5729 5724 5719 5713 5707 5701 5695 5688 5682 5674 5667 5663 5654 5645 5636 5628 5621 5615 5609 5604 5599 5595 5590 5586 5582 5578 5575 5571 5569 5566 5564 5561 5559 5557 5555 5555 5555 5556
5715 5710 5705 5700 5694 5687 5681 5674 5667 5659 5651 5644 5638 5629 5621 5613 5607 5602 5596 5591 5587 5582 5578 5574 5570 5566 5563 5560 5557 5555 5553 5551 5549 5546 5545 5544 5543 5544
5701 5697 5691 5686 5680 5673 5666 5659 5652 5645 5637 5629 5622 5615 5608 5601 5595 5590 5586 5581 5576 5571 5566 5562 5558 5555 5551 5548 5546 5545 5543 5541 5539 5537 5536 5534 5534 5534
5689 5683 5678 5673 5666 5659 5652 5645 5638 5631 5623 5616 5610 5604 5598 5592 5586 5580 5576 5571 5566 5561 5557 5552 5548 5544 5540 5538 5536 5535 5533 5532 5531 5529 5528 5526 5525 5525
5676 5670 5665 5660 5654 5647 5639 5632 5625 5619 5612 5607 5601 5596 5590 5583 5578 5572 5567 5563 5558 5554 5548 5543 5538 5534 5530 5528 5526 5525 5524 5523 5522 5521 5520 5519 5517 5516
5663 5658 5652 5647 5641 5635 5628 5621 5615 5609 5604 5599 5594 5588 5582 5577 5571 5566 5560 5555 5550 5545 5540 5535 5530 5525 5522 5519 5517 5516 5516 5515 5515 5514 5513 5511 5510 5509
5650 5646 5640 5635 5630 5624 5618 5613 5607 5602 5597 5592 5587 5582 5576 5570 5564 5559 5554 5549 5543 5537 5533 5528 5523 5518 5514 5511 5509 5509 5508 5508 5507 5506 5505 5504 5502 5501
5639 5635 5630 5625 5620 5615 5611 5607 5602 5598 5593 5587 5582 5576 5570 5564 5558 5553 5547 5542 5537 5532 5527 5522 5517 5513 5509 5506 5504 5503 5502 5502 5501 5500 5498 5497 5495 5494
5628 5624 5620 5616 5612 5609 5605 5602 5598 5594 5589 5584 5578 5572 5566 5560 5553 5547 5542 5537 5532 5527 5522 5517 5512 5508 5505 5502 5500 5498 5497 5496 5494 5493 5491 5490 5488 5487
5619 5616 5612 5609 5606 5604 5601 5598 5595 5591 5586 5581 5576 5570 5563 5557 5550 5544 5538 5532 5528 5523 5518 5514 5509 5505 5502 5500 5497 5495 5493 5491 5489 5487 5485 5483 5482 5482
5610 5608 5606 5604 5603 5601 5598 5596 5592 5589 5584 5580 5574 5569 5562 5556 5550 5543 5537 5531 5526 5521 5517 5512 5508 5504 5501 5498 5495 5492 5489 5487 5484 5482 5480 5478 5477 5476
5603 5602 5602 5601 5600 5598 5596 5594 5591 5587 5583 5579 5574 5568 5563 5557 5551 5544 5538 5533 5527 5522 5518 5513 5509 5505 5502 5498 5494 5491 5487 5484 5481 5478 5475 5474 5473 5472
5599 5599 5599 5599 5598 5597 5595 5593 5590 5587 5583 5579 5574 5569 5564 5558 5553 5547 5541 5536 5531 5526 5521 5516 5512 5508 5503 5499 5495 5491 5487 5483 5479 5475 5473 5471 5470 5470
5596 5597 5598 5598 5598 5597 5595 5593 5591 5587 5584 5580 5576 5571 5566 5561 5556 5550 5545 5540 5535 5530 5525 5521 5516 5511 5507 5503 5498 5493 5488 5483 5479 5475 5472 5469 5468 5468
5595 5596 5598 5598 5598 5598 5596 5595 5592 5589 5586 5582 5578 5574 5569 5564 5559 5554 5549 5544 5539 5535 5530 5525 5521 5516 5512 5507 5502 5496 5491 5486 5481 5476 5472 5470 5469 5470
5596 5597 5598 5599 5599 5599 5598 5596 5594 5591 5588 5585 5581 5577 5572 5568 5563 5558 5554 5549 5544 5540 5535 5531 5526 5522 5517 5512 5507 5501 5496 5490 5485 5480 5476 5473 5473 5473
5597 5598 5600 5601 5601 5601 5600 5598 5597 5594 5592 5588 5585 5580 5576 5572 5567 5563 5558 5554 5549 5545 5540 5536 5532 5528 5523 5518 5513 5507 5501 5496 5491 5486 5482 5479 5478 5478
5599 5601 5602 5603 5603 5603 5602 5601 5600 5598 5595 5592 5588 5584 5580 5576 5571 5567 5562 5558 5554 5550 5546 5542 5537 5533 5528 5524 5520 5514 5509 5503 5498 5494 5490 5487 5486 5486
5603 5604 5605 5606 5606 5606 5606 5605 5603 5601 5598 5595 5592 5589 5584 5580 5576 5571 5567 5562 5558 5554 5550 5546 5542 5538 5534 5530 5526 5521 5516 5512 5507 5503 5500 5497 5495 5495
5607 5608 5609 5610 5610 5609 5609 5608 5606 5604 5601 5599 5595 5592 5588 5584 5580 5575 5571 5567 5562 5558 5554 5550 5546 5543 5539 5536 5532 5528 5524 5521 5517 5514 5511 5507 5505 5504